DW9447 Weather Reports


time (UTC)temp
C
wind
direction
speed
KPH
gust
KPH
rain 1hr
cm
rain 24hr
cm
rain mn
cm
humidity
%
barometer
mb
20260906052349 26 316 0.0 3.2 0.00 0.00 0.00 85 1012.2
20260906051850 26 50 0.0 1.6 0.00 0.00 0.00 84 1012.4
20260906051350 26 50 0.0 0.0 0.00 0.00 0.00 83 1012.4
20260906050848 26 50 0.0 0.0 0.00 0.00 0.00 83 1012.5
20260906045844 26 50 0.0 0.0 0.00 0.00 0.00 84 1012.6
20260906045343 26 50 0.0 0.0 0.00 0.00 0.00 84 1012.6
20260906044842 27 50 0.0 0.0 0.00 0.00 0.00 84 1012.7
20260906044341 27 50 0.0 0.0 0.00 0.00 0.00 84 1012.7
20260906043836 27 50 0.0 0.0 0.00 0.00 0.00 84 1012.7
20260906043335 27 50 0.0 0.0 0.00 0.00 0.00 84 1012.8
20260906042834 27 50 0.0 0.0 0.00 0.00 0.00 84 1012.9
20260906041832 27 50 0.0 1.6 0.00 0.00 0.00 83 1012.8
20260906041330 27 50 0.0 3.2 0.00 0.00 0.00 83 1012.7
20260906035828 27 105 0.0 4.8 0.00 0.00 0.00 83 1012.9
20260906035327 27 350 0.0 1.6 0.00 0.00 0.00 82 1012.8
20260906034825 27 350 0.0 0.0 0.00 0.00 0.00 82 1012.7
20260906034325 27 350 0.0 0.0 0.00 0.00 0.00 82 1012.7
20260906033820 27 350 0.0 0.0 0.00 0.00 0.00 82 1012.6
20260906033321 27 350 0.0 0.0 0.00 0.00 0.00 81 1012.6
20260906032818 27 350 0.0 0.0 0.00 0.00 0.00 80 1012.6
20260906032317 27 350 0.0 0.0 0.00 0.00 0.00 81 1012.5
20260906030818 27 350 0.0 0.0 0.00 0.00 0.00 80 1012.5
20260906030318 27 350 0.0 0.0 0.00 0.00 0.00 80 1012.4
20260906025821 27 350 0.0 0.0 0.00 0.00 0.00 79 1012.4
20260906025318 28 350 0.0 0.0 0.00 0.00 0.00 79 1012.3
20260906024818 28 350 0.0 0.0 0.00 0.00 0.00 79 1012.4
20260906024318 28 350 0.0 0.0 0.00 0.00 0.00 79 1012.2
20260906023318 28 350 0.0 0.0 0.00 0.00 0.00 78 1012.1
20260906022318 28 350 0.0 0.0 0.00 0.00 0.00 77 1011.9
20260906020818 28 350 0.0 0.0 0.00 0.00 0.00 75 1011.7
20260906020317 29 350 0.0 0.0 0.00 0.00 0.00 75 1011.7
20260906015814 29 350 0.0 0.0 0.00 0.00 0.00 75 1011.6
20260906015313 29 350 0.0 0.0 0.00 0.00 0.00 74 1011.6
20260906014814 29 350 0.0 0.0 0.00 0.00 0.00 74 1011.6
20260906014313 30 350 0.0 0.0 0.00 0.00 0.00 73 1011.5
20260906013814 30 350 0.0 0.0 0.00 0.00 0.00 73 1011.5
20260906013314 30 350 0.0 0.0 0.00 0.00 0.00 73 1011.6
20260906012814 30 350 0.0 0.0 0.00 0.00 0.00 72 1011.6
20260906012313 30 350 0.0 0.0 0.00 0.00 0.00 70 1011.5
20260906011810 30 350 0.0 0.0 0.00 0.00 0.00 69 1011.5
20260906011310 30 350 0.0 0.0 0.00 0.00 0.00 70 1011.4
20260906010809 31 350 0.0 0.0 0.00 0.00 0.00 70 1011.4
20260906010309 31 350 0.0 0.0 0.00 0.00 0.00 68 1011.4
20260906005810 31 350 0.0 0.0 0.00 0.00 0.00 68 1011.4
20260906005310 31 350 0.0 1.6 0.00 0.00 0.00 68 1011.3
20260906004810 31 350 0.0 1.6 0.00 0.00 0.00 67 1011.2
20260906004311 31 350 0.0 0.0 0.00 0.00 0.00 66 1011.2
20260906003808 32 350 0.0 0.0 0.00 0.00 0.00 64 1011.2
20260906002259 33 350 0.0 0.0 0.00 0.00 0.00 62 1011.1
20260906001753 33 350 0.0 0.0 0.00 0.00 0.00 62 1011.1
20260906001248 33 350 0.0 0.0 0.00 0.00 0.00 61 1011.2
20260906000245 33 350 0.0 0.0 0.00 0.00 0.00 59 1011.3
20260905235745 33 350 0.0 0.0 0.00 0.00 0.00 59 1011.3
20260905235245 34 350 0.0 0.0 0.00 0.00 0.00 58 1011.4
20260905234743 34 350 0.0 1.6 0.00 0.00 0.00 57 1011.3
20260905233743 35 350 0.0 1.6 0.00 0.00 0.00 55 1011.3
20260905233241 35 20 0.0 1.6 0.00 0.00 0.00 55 1011.4
20260905232739 35 25 0.0 4.8 0.00 0.00 0.00 54 1011.3
20260905232238 35 25 1.6 4.8 0.00 0.00 0.00 52 1011.3
20260905231738 35 54 1.6 4.8 0.00 0.00 0.00 52 1011.3
20260905231237 35 344 0.0 4.8 0.00 0.00 0.00 52 1011.2
20260905230737 35 15 0.0 4.8 0.00 0.00 0.00 51 1011.3
20260905230235 35 351 1.6 6.4 0.00 0.00 0.00 51 1011.2
20260905225226 35 25 1.6 4.8 0.00 0.00 0.00 51 1011.2
20260905224720 35 18 1.6 4.8 0.00 0.00 0.00 51 1011.2
20260905224214 35 32 1.6 4.8 0.00 0.00 0.00 50 1011.2
20260905223704 35 54 1.6 4.8 0.00 0.00 0.00 50 1011.2
20260905223158 36 83 1.6 4.8 0.00 0.00 0.00 50 1011.2
20260905222652 36 347 0.0 4.8 0.00 0.00 0.00 50 1011.2
20260905222141 36 23 1.6 4.8 0.00 0.00 0.00 49 1011.2
20260905221130 36 335 1.6 3.2 0.00 0.00 0.00 49 1011.2
20260905220620 36 31 1.6 4.8 0.00 0.00 0.00 49 1011.3
20260905220114 36 341 1.6 4.8 0.00 0.00 0.00 49 1011.3
20260905215608 36 40 3.2 6.4 0.00 0.00 0.00 49 1011.3
20260905215059 36 27 3.2 6.4 0.00 0.00 0.00 48 1011.3
20260905214552 36 30 3.2 8.0 0.00 0.00 0.00 48 1011.4
20260905214046 36 31 1.6 8.0 0.00 0.00 0.00 48 1011.3
20260905213030 37 78 3.2 6.4 0.00 0.00 0.00 48 1011.4
20260905212014 37 99 1.6 6.4 0.00 0.00 0.00 45 1011.5
20260905211508 37 356 1.6 6.4 0.00 0.00 0.00 45 1011.5
20260905211002 37 321 3.2 6.4 0.00 0.03 0.00 46 1011.5
20260905210452 37 309 3.2 6.4 0.00 0.03 0.00 47 1011.5
20260905205946 37 271 1.6 8.0 0.00 0.03 0.00 47 1011.6
20260905205441 37 302 1.6 8.0 0.00 0.05 0.00 46 1011.7
20260905204930 37 309 1.6 4.8 0.00 0.08 0.00 46 1011.7
20260905204424 37 57 3.2 8.0 0.00 0.10 0.00 47 1011.8
20260905203408 37 46 3.2 9.7 0.00 0.28 0.00 48 1011.9
20260905202902 37 31 1.6 6.4 0.00 0.38 0.00 49 1012.0
20260905202356 36 304 1.6 6.4 0.00 0.41 0.00 49 1012.0
20260905200834 36 65 1.6 8.0 0.00 0.48 0.00 51 1012.2
20260905195312 36 325 1.6 4.8 0.00 0.48 0.00 50 1012.6
20260905194802 36 30 1.6 6.4 0.00 0.48 0.00 50 1012.6
20260905194256 36 53 3.2 6.4 0.00 0.48 0.00 49 1012.8
20260905193751 36 91 3.2 8.0 0.00 0.48 0.00 49 1012.8
20260905192734 37 101 1.6 6.4 0.00 0.48 0.00 48 1012.9
20260905192228 37 243 3.2 8.0 0.00 0.48 0.00 47 1012.9
20260905191212 36 57 3.2 6.4 0.00 0.48 0.00 47 1013.2
20260905190156 36 167 3.2 11.3 0.00 0.48 0.00 49 1013.4
20260905185651 36 269 3.2 11.3 0.00 0.48 0.00 48 1013.4
20260905185145 36 349 3.2 12.9 0.00 0.48 0.00 48 1013.4
20260905184634 36 46 3.2 12.9 0.00 0.48 0.00 48 1013.5
20260905184128 36 330 3.2 9.7 0.00 0.48 0.00 48 1013.5
20260905183623 36 349 4.8 9.7 0.00 0.48 0.00 47 1013.6
20260905183112 36 314 3.2 8.0 0.00 0.48 0.00 48 1013.7
20260905182611 36 307 1.6 8.0 0.00 0.48 0.00 49 1013.7
20260905182111 36 271 3.2 8.0 0.00 0.48 0.00 49 1013.8
20260905181112 36 93 3.2 11.3 0.00 0.48 0.00 47 1013.8
20260905180612 36 37 1.6 11.3 0.00 0.48 0.00 48 1013.9
20260905180116 36 14 1.6 6.4 0.00 0.48 0.00 48 1013.9
20260905175611 37 16 3.2 8.0 0.00 0.48 0.00 49 1013.9
20260905175109 37 314 4.8 9.7 0.00 0.48 0.00 48 1014.0
20260905174609 37 295 3.2 9.7 0.00 0.48 0.00 49 1014.0
20260905174106 37 315 3.2 8.0 0.00 0.48 0.00 50 1014.0
20260905173606 37 103 3.2 8.0 0.00 0.48 0.00 49 1014.0
20260905173107 37 136 3.2 8.0 0.00 0.48 0.00 49 1014.0
20260905172607 37 171 3.2 8.0 0.00 0.48 0.00 50 1014.1
20260905172107 36 138 1.6 8.0 0.00 0.48 0.00 50 1014.1
20260905171603 36 92 1.6 6.4 0.00 0.48 0.00 51 1014.2
20260905170601 36 318 3.2 8.0 0.00 0.48 0.00 51 1014.3
20260905170101 36 290 3.2 8.0 0.00 0.48 0.00 50 1014.3
20260905165559 36 309 3.2 6.4 0.00 0.48 0.00 51 1014.4
20260905165059 36 312 3.2 6.4 0.00 0.48 0.00 51 1014.5
20260905163556 36 271 4.8 9.7 0.00 0.48 0.00 52 1014.8
20260905163057 36 302 4.8 9.7 0.00 0.48 0.00 52 1014.8
20260905162556 36 279 3.2 8.0 0.00 0.48 0.00 53 1014.9
20260905162056 36 311 3.2 8.0 0.00 0.48 0.00 54 1015.0
20260905161600 35 283 3.2 8.0 0.00 0.48 0.00 54 1015.0
20260905160556 35 318 1.6 8.0 0.00 0.48 0.00 57 1015.1
20260905160056 35 19 1.6 6.4 0.00 0.48 0.00 57 1015.1
20260905155556 35 297 3.2 6.4 0.00 0.48 0.00 59 1015.1
20260905155057 35 297 3.2 6.4 0.00 0.48 0.00 58 1015.2
20260905154556 35 271 1.6 6.4 0.00 0.48 0.00 60 1015.2
20260905154056 34 84 1.6 4.8 0.00 0.48 0.00 59 1015.3
20260905153556 34 68 1.6 4.8 0.00 0.48 0.00 60 1015.3
20260905153057 33 37 1.6 6.4 0.00 0.48 0.00 60 1015.3
20260905152557 33 271 1.6 6.4 0.00 0.48 0.00 60 1015.2
20260905151556 33 300 1.6 8.0 0.00 0.48 0.00 62 1015.2
20260905151056 33 323 3.2 8.0 0.00 0.48 0.00 64 1015.2
20260905150557 33 330 3.2 6.4 0.00 0.48 0.00 64 1015.2
20260905150056 32 308 3.2 6.4 0.00 0.48 0.00 65 1015.2
20260905145556 32 255 1.6 4.8 0.00 0.48 0.00 66 1015.3
20260905145056 32 278 1.6 4.8 0.00 0.48 0.00 66 1015.2
20260905144557 32 307 1.6 4.8 0.00 0.48 0.00 65 1015.2
20260905143055 31 297 0.0 1.6 0.00 0.48 0.00 69 1015.3
20260905142545 31 53 0.0 3.2 0.00 0.48 0.00 69 1015.3
20260905141534 30 100 0.0 3.2 0.00 0.48 0.00 70 1015.3
20260905140517 30 135 1.6 4.8 0.00 0.48 0.00 75 1015.4
20260905140012 29 130 1.6 4.8 0.00 0.48 0.00 78 1015.6
20260905135501 28 101 0.0 3.2 0.00 0.48 0.00 77 1015.4
20260905134955 28 115 0.0 3.2 0.00 0.48 0.00 81 1015.4
20260905134450 27 118 0.0 3.2 0.00 0.48 0.00 82 1015.3
20260905133940 27 19 0.0 1.6 0.00 0.48 0.00 85 1015.4
20260905133433 26 19 0.0 1.6 0.00 0.48 0.00 88 1015.4
20260905132927 26 98 0.0 1.6 0.00 0.48 0.00 91 1015.3
20260905131911 25 98 0.0 1.6 0.00 0.48 0.00 94 1015.4
20260905131404 25 98 0.0 1.6 0.00 0.48 0.00 94 1015.4
20260905130857 25 98 0.0 1.6 0.00 0.48 0.00 94 1015.4
20260905130349 24 98 0.0 1.6 0.00 0.48 0.00 95 1015.4
20260905125843 24 98 0.0 0.0 0.00 0.48 0.00 95 1015.6
20260905125333 24 98 0.0 0.0 0.00 0.48 0.00 95 1015.6
20260905124827 23 98 0.0 1.6 0.00 0.48 0.00 95 1015.6
20260905124320 23 98 0.0 1.6 0.00 0.48 0.00 95 1015.6
20260905123304 23 98 0.0 1.6 0.00 0.48 0.00 94 1015.4
20260905122759 23 98 0.0 1.6 0.00 0.48 0.00 94 1015.6
20260905122249 22 98 0.0 0.0 0.00 0.48 0.00 94 1015.4
20260905121743 22 98 0.0 1.6 0.00 0.48 0.00 94 1015.4
20260905121238 22 98 0.0 1.6 0.00 0.48 0.00 94 1015.3
20260905120221 22 98 0.0 0.0 0.00 0.48 0.00 93 1015.2
20260905115715 22 98 0.0 0.0 0.00 0.48 0.00 93 1015.2
20260905114659 22 98 0.0 0.0 0.00 0.48 0.00 93 1015.1
20260905113643 22 98 0.0 0.0 0.00 0.48 0.00 93 1014.9
20260905113137 22 98 0.0 0.0 0.00 0.48 0.00 93 1014.9
20260905112631 22 98 0.0 0.0 0.00 0.48 0.00 93 1014.8
20260905112120 22 98 0.0 0.0 0.00 0.48 0.00 93 1014.7
20260905111615 22 98 0.0 0.0 0.00 0.48 0.00 93 1014.6
20260905111110 22 98 0.0 0.0 0.00 0.48 0.00 93 1014.6
20260905110559 22 98 0.0 0.0 0.00 0.48 0.00 93 1014.6
20260905110053 22 98 0.0 0.0 0.00 0.48 0.00 93 1014.5
20260905105547 22 98 0.0 0.0 0.00 0.48 0.00 93 1014.4
20260905104540 22 98 0.0 0.0 0.00 0.48 0.00 93 1014.4
20260905104041 22 98 0.0 0.0 0.00 0.48 0.00 93 1014.4
20260905103540 22 98 0.0 0.0 0.00 0.48 0.00 93 1014.4
20260905103038 22 98 0.0 0.0 0.00 0.48 0.00 93 1014.3
20260905102538 22 98 0.0 0.0 0.00 0.48 0.00 93 1014.2
20260905102038 22 98 0.0 0.0 0.00 0.48 0.00 93 1014.2
20260905101537 22 98 0.0 0.0 0.00 0.48 0.00 93 1014.2
20260905101035 22 98 0.0 0.0 0.00 0.48 0.00 93 1014.1
20260905100034 22 98 0.0 1.6 0.00 0.48 0.00 93 1014.1
20260905095533 22 98 0.0 1.6 0.00 0.48 0.00 93 1014.1
20260905095032 22 98 0.0 1.6 0.00 0.48 0.00 93 1014.1
20260905094532 22 98 0.0 0.0 0.00 0.48 0.00 93 1014.1
20260905093528 22 98 0.0 0.0 0.00 0.48 0.00 92 1013.9
20260905092522 22 98 0.0 0.0 0.00 0.48 0.00 92 1013.9
20260905092019 22 98 0.0 0.0 0.00 0.48 0.00 92 1013.8
20260905091020 22 98 0.0 0.0 0.00 0.48 0.00 92 1013.8
20260905090018 23 98 0.0 0.0 0.00 0.48 0.00 92 1013.7
20260905085518 23 98 0.0 0.0 0.00 0.48 0.00 92 1013.8
20260905085018 23 98 0.0 1.6 0.00 0.48 0.00 92 1013.8
20260905084518 23 98 0.0 1.6 0.00 0.48 0.00 92 1013.7
20260905084018 23 98 0.0 1.6 0.00 0.48 0.00 93 1013.7
20260905083522 23 354 0.0 0.0 0.00 0.48 0.00 93 1013.6
20260905083021 23 354 0.0 0.0 0.00 0.48 0.00 93 1013.7
20260905082518 23 354 0.0 0.0 0.00 0.48 0.00 93 1013.7
20260905081510 23 354 0.0 0.0 0.00 0.48 0.00 92 1013.8
20260905081004 23 354 0.0 0.0 0.00 0.48 0.00 92 1013.8
20260905080500 23 354 0.0 0.0 0.00 0.48 0.00 92 1013.7
20260905080000 23 354 0.0 0.0 0.00 0.48 0.00 92 1013.6
20260905075500 23 354 0.0 1.6 0.00 0.48 0.00 92 1013.7
20260905074958 23 354 0.0 1.6 0.00 0.48 0.00 92 1013.8
20260905074456 23 354 0.0 1.6 0.00 0.48 0.00 92 1013.8
20260905072956 23 354 0.0 0.0 0.00 0.48 0.00 92 1013.7
20260905072452 23 354 0.0 0.0 0.00 0.48 0.00 92 1013.8
20260905071448 23 354 0.0 0.0 0.00 0.48 0.00 92 1013.7
20260905070946 23 354 0.0 0.0 0.00 0.48 0.00 92 1013.8
20260905070444 23 354 0.0 0.0 0.00 0.48 0.00 92 1013.9
20260905065944 23 354 0.0 0.0 0.00 0.48 0.00 92 1013.9
20260905065442 23 354 0.0 0.0 0.00 0.48 0.00 92 1014.0
20260905064940 23 354 0.0 0.0 0.00 0.48 0.00 92 1014.0
20260905064433 23 354 0.0 0.0 0.00 0.48 0.00 92 1014.0
20260905063932 23 354 0.0 0.0 0.00 0.48 0.00 92 1014.1
20260905063432 23 354 0.0 1.6 0.00 0.48 0.00 92 1014.2
20260905062932 23 354 0.0 1.6 0.00 0.48 0.00 92 1014.2
20260905062430 23 354 0.0 0.0 0.00 0.48 0.00 92 1014.2
20260905061930 23 354 0.0 0.0 0.00 0.48 0.00 92 1014.3
20260905060429 23 354 0.0 0.0 0.00 0.48 0.00 92 1014.2
20260905055930 23 354 0.0 0.0 0.00 0.48 0.00 92 1014.3
20260905055430 23 354 0.0 0.0 0.00 0.48 0.00 92 1014.4
20260905054929 23 354 0.0 0.0 0.00 0.48 0.00 92 1014.3
20260905054429 23 354 0.0 0.0 0.00 0.48 0.00 92 1014.3
20260905053929 24 354 0.0 0.0 0.00 0.48 0.00 92 1014.3
20260905053430 24 354 0.0 0.0 0.00 0.48 0.00 92 1014.3
20260905052930 24 354 0.0 0.0 0.00 0.48 0.00 92 1014.3